Regional Weather Roundup
Issued by NWS

Home | Current Version | Previous Version | Graphics & Text | Print | Product List | Glossary On
Versions: 1 2 3 4 5 6 7 8 9 10 11 12 13 14 15 16 17 18 19 20 21 22 23 24 25 26 27 28 29 30 31 32 33 34 35 36 37 38 39 40 41 42 43 44 45 46 47 48 49 50
000
ASUS43 KDTX 291210
RWRMI
MICHIGAN HOURLY REGIONAL WEATHER ROUNDUP
NATIONAL WEATHER SERVICE DETROIT/PONTIAC MI
800 AM EDT SUN MAY 29 2016

NOTE: "FAIR" INDICATES FEW OR NO CLOUDS BELOW 12,000 FEET WITH NO
SIGNIFICANT WEATHER AND/OR OBSTRUCTION TO VISIBILITY.

MIZ047>049-052>055-059>063-066>070-074>076-081>083-291300-
SOUTHEAST LOWER MICHIGAN

CITY           SKY/WX    TMP DP  RH WIND       PRES   REMARKS
ADRIAN         PTSUNNY   69  65  86 SW9       30.05R
6HR MIN TEMP:  68; 6HR MAX TEMP:  70;

ALMA           SUNNY     70  65  86 SW9       30.00R
ANN ARBOR      CLOUDY    69  64  84 S8        30.03S
BAD AXE        CLOUDY    70  64  82 S7        30.00S
CARO           CLOUDY    71  65  80 S7        29.99S
DETROIT CITY   CLOUDY    71  63  75 S7        30.04R
6HR MIN TEMP:  69; 6HR MAX TEMP:  72;

DETROIT        CLOUDY    71  64  78 S8        30.04F
6HR MIN TEMP:  68; 6HR MAX TEMP:  71; 6HR PCP: TRACE;

FLINT          PTSUNNY   73  65  75 S9        30.00F
6HR MIN TEMP:  73; 6HR MAX TEMP:  77;

GROSSE ILE     MOSUNNY   70  64  83 S10       30.04S
HILLSDALE      PTSUNNY   67  65  91 SW7       30.06R FOG
HOWELL         CLOUDY    69  65  88 S7        30.03R

CITY           SKY/WX    TMP DP  RH WIND       PRES   REMARKS
JACKSON        PTSUNNY   69  66  90 SW7       30.04R
6HR MIN TEMP:  68; 6HR MAX TEMP:  71; 6HR PCP: TRACE;

LAMBERTVILLE   PTSUNNY   72  65  79 SW6       30.05F
6HR MIN TEMP:  70; 6HR MAX TEMP:  72;

LANSING        MOSUNNY   70  65  84 SW12      30.02R
6HR MIN TEMP:  68; 6HR MAX TEMP:  72; 6HR PCP:  0.01;

LAPEER         FAIR      71  63  77 S7        30.02S
6HR MIN TEMP:  68; 6HR MAX TEMP:  73;

MASON          MOSUNNY   67  65  91 SW3       30.03S
MONROE         CLOUDY    71  66  84 S8G16     30.04S
6HR MIN TEMP:  67; 6HR MAX TEMP:  71;

MT. CLEMENS    CLOUDY    69  68  95 S6        30.03S
6HR MIN TEMP:  63; 6HR MAX TEMP:  71;

PONTIAC        CLOUDY    70  64  81 S8        30.02F
6HR MIN TEMP:  69; 6HR MAX TEMP:  73;

PORT HOPE        N/A     71  64  78 S7        29.97F
6HR MIN TEMP:  70; 6HR MAX TEMP:  73;

PORT HURON     MOSUNNY   68  64  88 S5        30.04S
TRI CITIES     CLOUDY    73  66  78 SW9       29.99R
6HR MIN TEMP:  71; 6HR MAX TEMP:  73; 6HR PCP: TRACE;

MIDLAND        FAIR      70  65  84 S7        29.99R
6HR MIN TEMP:  69; 6HR MAX TEMP:  71;

TROY           CLOUDY    72  64  78 S6        30.06R
SAGINAW HB     PTSUNNY   70  64  83 SW10      29.99R
$$
MIZ043>046-050>051-056>058-064>065-071>073-077>080-291300-
SOUTHWEST LOWER MICHIGAN

CITY           SKY/WX    TMP DP  RH WIND       PRES   REMARKS
BATTLE CREEK   MOSUNNY   69  65  86 SW12      30.03R
6HR MIN TEMP:  66; 6HR MAX TEMP:  71;

BENTON HARBOR  SUNNY     68  57  68 S6        30.01R
6HR MIN TEMP:  64; 6HR MAX TEMP:  72;

BIG RAPIDS     MOSUNNY   66  64  91 S5        29.97S
6HR MIN TEMP:  62; 6HR MAX TEMP:  66;

COLDWATER      MOSUNNY   70  65  86 SW8       30.04R
6HR MIN TEMP:  67; 6HR MAX TEMP:  72;

FREMONT        FAIR      65  62  90 S8        29.98R
HOLLAND        SUNNY     69  60  73 SW9       30.00R
6HR MIN TEMP:  63; 6HR MAX TEMP:  69;

GRAND RAPIDS   PTSUNNY   71  63  75 S10       30.00R
6HR MIN TEMP:  67; 6HR MAX TEMP:  75;

IONIA          FAIR      70  62  76 S13       30.00R
6HR MIN TEMP:  68; 6HR MAX TEMP:  73;

KALAMAZOO      MOSUNNY   70  63  78 S10       30.02R
6HR MIN TEMP:  67; 6HR MAX TEMP:  71;

LUDINGTON      MOSUNNY   65  61  86 S8        29.95S
6HR MIN TEMP:  60; 6HR MAX TEMP:  65;

MARSHALL       MOSUNNY   69  65  87 SW8       30.03S
6HR MIN TEMP:  67; 6HR MAX TEMP:  73;

MOUNT PLEASANT SUNNY     70  65  84 S7        29.98S
6HR MIN TEMP:  67; 6HR MAX TEMP:  73;

MUSKEGON       CLOUDY    65  55  70 S15G21    29.98R
6HR MIN TEMP:  62; 6HR MAX TEMP:  67;

SOUTH HAVEN    SUNNY     68  59  73 SW6       30.01R
$$
MIZ016>042-291300-
NORTHERN LOWER MICHIGAN

CITY           SKY/WX    TMP DP  RH WIND       PRES   REMARKS
ALPENA         CLOUDY    70  64  81 S6        29.95R
6HR MIN TEMP:  67; 6HR MAX TEMP:  73;

BEAVER ISLAND  MOSUNNY   66  60  81 S13       29.90S
6HR MIN TEMP:  54; 6HR MAX TEMP:  67;

BELLAIRE       MOSUNNY   69  61  76 S5        29.93S
6HR MIN TEMP:  61; 6HR MAX TEMP:  71;

CADILLAC       MOSUNNY   66  60  82 S10       29.97S
CHARLEVOIX     SUNNY     69  61  76 S9        29.94F
FRANKFORT      SUNNY     66  62  85 S9G18     29.92S
GAYLORD        CLOUDY    67  60  78 SW12      29.96R
6HR MIN TEMP:  65; 6HR MAX TEMP:  69;

GRAYLING       MOSUNNY   68  63  85 S9        29.97S
HARBOR SPRINGS PTSUNNY   66  61  82 CALM      29.92S
HOUGHTON LAKE  PTSUNNY   67  63  87 S9        29.98R
6HR MIN TEMP:  66; 6HR MAX TEMP:  70;

MANISTEE       MOSUNNY   63  57  82 S7        29.95R
OSCODA         MOSUNNY   72  65  80 S8        29.96R
6HR MIN TEMP:  69; 6HR MAX TEMP:  72;

PELLSTON       PTSUNNY   69  60  73 SW8       29.92R
6HR MIN TEMP:  60; 6HR MAX TEMP:  72; 6HR PCP: TRACE;

ROGERS CITY    CLOUDY    68  62  82 SW7       29.94S
TRAVERSE CITY  MOSUNNY   69  60  73 VRB6      29.91S
6HR MIN TEMP:  66; 6HR MAX TEMP:  71;

$$
MIZ007>008-015-291300-
EASTERN UPPER MICHIGAN

CITY           SKY/WX    TMP DP  RH WIND       PRES   REMARKS
KINROSS          N/A     64  64 100 SE6       29.91S
6HR MIN TEMP:  61; 6HR MAX TEMP:  64;

MACKINAC ISLAN MOSUNNY   67  64  91 S6        29.91S
6HR MIN TEMP:  58; 6HR MAX TEMP:  67;

NEWBERRY       PTSUNNY   62  57  84 S17       29.89S
6HR MIN TEMP:  56; 6HR MAX TEMP:  63;

S. S. MARIE    MOSUNNY   64  61  90 VRB3      29.90R
6HR MIN TEMP:  60; 6HR MAX TEMP:  65;

MUNISING         N/A     62  58  86 S10G17    29.83S
6HR MIN TEMP:  61; 6HR MAX TEMP:  65;

$$
MIZ004>006-011>014-085-291300-
CENTRAL UPPER MICHIGAN

CITY           SKY/WX    TMP DP  RH WIND       PRES   REMARKS
MANISTIQUE     FOG       55  54  97 S8        29.88S VSB 1/4
6HR MIN TEMP:  53; 6HR MAX TEMP:  55;

ESCANABA       CLOUDY    57  55  94 S7        29.85F
6HR MIN TEMP:  55; 6HR MAX TEMP:  63;

MENOMINEE      SUNNY     66  63  88 SW8       29.87R
6HR MIN TEMP:  61; 6HR MAX TEMP:  66;

SAWYER-GWINN   CLOUDY    61  59  94 S14       29.83S
$$
MIZ001>003-009>011-084-291300-
WESTERN UPPER MICHIGAN

CITY           SKY/WX    TMP DP  RH WIND       PRES   REMARKS
IRON MOUNTAIN  CLOUDY    63  61  93 S5        29.82S
6HR MIN TEMP:  60; 6HR MAX TEMP:  65;

HOUGHTON       FOG       58  57  97 CALM      29.77R VSB 1/4
6HR MIN TEMP:  57; 6HR MAX TEMP:  60; 6HR PCP:  0.06;

COPPER HARBOR    N/A     56  56 100 CALM      29.76S
6HR MIN TEMP:  45; 6HR MAX TEMP:  56;

IRONWOOD       CLOUDY    59  59 100 W8        29.77R
6HR MIN TEMP:  55; 6HR MAX TEMP:  61; 6HR PCP:  0.02;

$$

ABBREVIATIONS USED IN REMARKS
   TC - TEMPERATURE IN CELSIUS
  WCI - WIND CHILL INDEX
   HX - HEAT INDEX
  VSB - VISIBILITY





USA.gov is the U.S. government's official web portal to all federal, state and local government web resources and services.